STARLINK-3784, 52275

Orbit data source: Space-Track

STARLINK-3784, 52275 is a payload satellite owned by SpaceX/Seattle (US) in LEO that was launched on Thu, 21 Apr 2022 UTC via an FALCON 9 launch vehicle from the Air Force Eastern Test Range (AFETR). Payload-class satellites include a variety of spacecraft equipped with specific instruments for various scientific and technological missions. These include communications satellites like Starlink; space stations such as the ISS; scientific satellites like the Hubble; Earth observation satellites from companies like Planet Labs, Umbra, and HawkEye 360; GPS; miniature CubeSats for education and research; and military/defense satellites.

Loading next visibility...
Identifier
52275, 2022-041Q
Orbit
LEO
Country
Flag of USUS
Related business
Manufacturer
SpaceX/Seattle
Mission
Operational Commercial Communications
Bus & Motor
STARLINK, Unknown motor
Mass
297 kg wet, ~275 kg dry
Launch date (UTC)
2022-04-21 (4 years ago)
Launch vehicle
FALCON 9
Launch site
Air Force Eastern Test Range (AFETR)
Object type
Payload
Rocket body
Debris
Shape & HBR
Box + 1 Pan, 10.1 m
Radar Cross Section
11.087 m², Large (>1 m²)

Expand to show TLE details & history
Last TLE update: 7 hours ago

TLE from 7 hours ago
0 STARLINK-3784
1 52275U 22041Q   26130.48447852 -.00000389  00000-0 -63323-5 0  9998
2 52275  53.2170 191.7138 0001176  86.5197 273.5930 15.08838451223696
Epoch: 2026-05-10T11:37Z
TLE epoch observation values (Epoch: 2026-05-10T11:37:38.944Z)
Latitude
0.00002°
Longitude
149.01466°
Altitude
540.595 km
Speed
7.593 km/s
True Right ascension
12h 46m 51s
True Declination
0° 00' 00"
Sunlit
Object was in full shadow at epoch
Visualization orbit readout
Latitude
Unknown
Longitude
Unknown
Altitude
Unknown
Speed
Unknown
Apparent Right ascension
Unknown
Apparent Declination
Unknown
Sunlit
N/A
Visualization observer readout
Local Sidereal Time
02:52:11
Azimuth
Unknown
Elevation
Unknown
Doppler factor
Unknown
Orbital elements
Apogee altitude
540.807 km
Perigee altitude
539.18 km
Semi-major axis
6,918.13 km
Eccentricity
0.00012
Inclination
53.217°
RAAN
191.7138°
Arg. of periapsis
86.5197°
True anomaly
273.57955°
Mean anomaly
273.593°
Eccentric anomaly
273.58628°
Mean motion
3.7719 °/min
Orbital period
95.44 mins
BSTAR
-0.0000063323
Loading maneuver chart data...
Computing Atmospheric mass density...
Loading historical data...
Loading historical data...
Loading historical data...
Loading historical data...
Loading historical data...
Loading historical data...
Loading historical data...

Documentation

Showing up to 5 results
|